Regional Weather Roundup
Issued by NWS Cleveland, OH

Home | Current Version | Previous Version | Graphics & Text | Print | Product List | Glossary On
Versions: 1 2 3 4 5 6 7 8 9 10 11 12 13 14 15 16 17 18 19 20 21 22 23 24 25 26 27 28 29 30 31 32 33 34 35 36 37 38 39 40 41 42 43 44 45 46 47 48 49 50
000
ASUS41 KCLE 171502
RWRCLE
OHIO REGIONAL WEATHER ROUNDUP
NATIONAL WEATHER SERVICE CLEVELAND, OH
1100 AM EDT THU APR 17 2014

NOTE: "FAIR" INDICATES FEW OR NO CLOUDS BELOW 12,000 FEET WITH NO
SIGNIFICANT WEATHER AND/OR OBSTRUCTIONS TO VISIBILITY.

OHZ001>008-015>018-024>027-034-035-043-044-171600-
   NORTHWEST OHIO

CITY           SKY/WX    TMP DP  RH WIND       PRES   REMARKS
DEFIANCE       SUNNY     51  30  44 S9        30.31S
FINDLAY        SUNNY     52  31  44 S10       30.32R
TOLEDO EXPRESS SUNNY     50  28  42 S12       30.32S
TOLEDO EXEC    SUNNY     51  28  41 S12       30.34R
LIMA           SUNNY     54  32  43 S10       30.32R
$$

OHZ009>014-019>023-028>033-038-089-171600-
   NORTHEAST OHIO

CITY           SKY/WX    TMP DP  RH WIND       PRES   REMARKS
CLE-HOPKINS    PTSUNNY   52  27  38 S14G22    30.40S
CLE-LAKEFRONT  SUNNY     50  24  36 S17G28    30.36S
CUY CO. ARPT   NOT AVBL
LORAIN-ELYRIA  SUNNY     53  29  39 S16       30.37S
ASHTABULA      SUNNY     47  24  40 S13G23    30.43S
AKRON-CANTON   PTSUNNY   48  22  36 SE18      30.40S
WOOSTER        SUNNY     50  27  40 S13       30.39S
MANSFIELD      SUNNY     51  30  44 S12       30.36R
YOUNGSTOWN     PTSUNNY   47  21  35 SE13G20   30.43S
$$

OHZ042-051>053-060>062-070>072-077>081-171600-
  SOUTHWEST OHIO

CITY           SKY/WX    TMP DP  RH WIND       PRES   REMARKS
CINC-COVINGTON MOSUNNY   56  31  38 SW14G23   30.35S
CINC-LUNKEN    SUNNY     56  35  45 S13       30.37S
HAMILTON       SUNNY     59  32  36 SW13G23   30.36R
DAYTON         MOSUNNY   55  32  41 S16G23    30.34S
WRIGHT-PAT AFB SUNNY     57  31  37 SW15      30.34S
DAYTON GENERAL SUNNY     55  30  38 SW18      30.34S
WILMINGTON     SUNNY     56  31  38 SW18      30.35S
$$

OHZ036-037-039>041-045>050-054>059-063>069-073>076-082>088-171600-
  CENTRAL AND SOUTHEAST OHIO

CITY           SKY/WX    TMP DP  RH WIND       PRES   REMARKS
COLUMBUS       MOSUNNY   55  27  34 SW13G21   30.38S
OSU AIRPORT    SUNNY     55  29  36 S12       30.37R
BOLTON FIELD   NOT AVBL
RICKENBACK AFB NOT AVBL
NEWARK         SUNNY     53  27  36 S10       30.39R
MARION         SUNNY     53  30  41 S18       30.35S
LANCASTER      SUNNY     57  29  34 S12G22    30.39S
ZANESVILLE     SUNNY     53  25  33 S12       30.41S
NEW PHILLY     SUNNY     51  23  33 SE8       30.43S
$$



USA.gov is the U.S. government's official web portal to all federal, state and local government web resources and services.